sat.trackr.live / text

‹ back to catalog

STARLINK-3260

NORAD 50205 · 2021-125BB

PAYLOAD ACTIVE UNKNOWN

§ Identity

Operator
Country
US
Launch date
2021-12-18
Launch site
AFWTR
Launch vehicle
Mass (kg)
RCS (m²)

Purposes: comms

External: N2YO · Heavens-Above · Gunter

§ Orbital elements

Epoch: 2026-05-24T13:57:37.274688Z

Period
95.44 min
Inclination
53.2151°
Eccentricity
0.0001027
Mean motion
15.08837724 rev/d
Perigee alt
539.0 km
Apogee alt
540.5 km
Semi-major
6,917.9 km
B*
4.5051e-5
RAAN
228.4255°
Arg perigee
90.0791°
Mean anomaly
270.0319°
Rev number
24,861

§ Raw data

STARLINK-32601 50205U 21125BB  26144.58168142  .00000429  00000+0  45051-4 0  99982 50205  53.2151 228.4255 0001027  90.0791 270.0319 15.08837724248613

JSON: /api/v1/satellites/50205 · /tle

For live sub-satellite position, see the globe view (requires WebGL).

§ Visibility from observer

Set your observer location to see the next 7 days of passes ≥ 10°. The values pass through the URL so the page stays shareable.

No JS? Fill the form by hand. The geolocation button needs JavaScript.